GFSFLT1_850_rhum_102.txt.gz
RH
54 56 60 62 61 45 38 31 26 23 22 49 81 83 36 66 67 63 48 43 36 48 49 44 52 74 77 78 96 98 100 99
49 56 61 67 69 73 72 45 41 42 46 50 68 81 69 22 70 88 57 49 45 45 48 49 56 66 69 73 83 96 99 98
54 57 63 68 74 82 87 84 67 66 82 74 62 72 80 90 87 92 44 61 46 49 52 49 57 70 74 87 85 97 100 99
57 62 67 74 78 85 92 96 98 78 86 87 67 82 81 96 98 73 27 68 57 54 58 55 68 77 84 95 96 99 99 98
61 65 70 78 85 96 90 95 97 94 92 98 90 72 72 80 86 52 46 63 72 60 58 62 65 78 81 82 99 98 100 94
64 67 72 76 92 93 90 91 94 97 100 100 97 87 82 75 86 100 99 81 53 63 55 46 74 62 67 77 90 95 88 96
65 67 72 78 92 98 97 91 92 96 98 99 99 99 88 78 83 100 98 99 74 57 56 65 69 51 41 53 69 94 90 89
67 68 74 84 97 96 92 94 98 100 100 99 100 98 90 92 88 95 99 99 74 69 50 58 63 56 44 46 52 95 92 88
68 72 81 90 100 99 94 93 98 98 99 99 99 99 90 96 96 95 98 98 100 98 64 51 67 56 44 54 71 98 89 82
72 75 86 96 99 98 98 97 97 100 100 100 99 98 99 98 91 90 96 98 100 96 76 73 55 88 55 68 87 97 87 90
75 80 90 100 99 97 96 98 99 100 99 100 100 95 94 97 96 96 93 98 98 98 86 61 76 92 100 85 92 90 90 98
80 84 91 98 99 99 95 93 98 98 100 100 100 98 96 98 98 96 99 99 98 82 66 77 88 99 98 80 98 99 83 92
82 86 91 98 100 96 92 94 96 99 99 100 100 100 100 100 100 100 99 99 100 90 65 62 60 99 99 97 99 92 84 96
84 87 93 99 100 96 92 95 97 98 100 100 100 100 100 100 100 100 99 99 100 75 69 49 50 95 97 85 88 93 98 98
90 90 94 99 100 98 90 98 98 96 100 100 100 100 100 100 100 99 100 91 69 76 67 49 66 80 94 99 96 96 97 98
93 94 97 100 99 98 94 96 99 100 100 95 95 100 90 100 96 99 100 100 100 95 78 87 82 82 91 91 93 99 99 98
96 99 100 100 98 95 95 94 99 100 100 99 100 99 98 100 99 100 99 100 100 100 98 85 86 86 91 97 100 98 98 100
100 100 100 100 97 97 93 96 99 99 100 100 100 99 100 100 100 99 99 100 100 100 100 94 92 95 100 100 99 98 98 100
99 99 100 99 98 96 96 96 97 99 99 98 99 98 99 98 100 100 99 100 100 100 100 100 100 99 88 99 100 100 98 99

GFSFLT1_850_rhum_105.txt.gz
RH
38 40 46 50 53 59 59 61 64 73 71 49 34 54 70 75 76 81 88 90 63 68 64 46 55 71 89 86 96 98 97 97
36 46 51 56 58 62 67 70 72 69 69 67 58 49 51 67 74 76 83 98 98 94 92 93 52 50 83 80 100 100 99 98
41 46 51 60 64 72 77 77 79 80 78 76 76 68 53 54 64 75 82 94 100 98 98 95 55 49 84 91 100 96 100 98
42 46 52 59 64 76 82 86 83 87 93 91 85 80 69 51 73 74 82 89 90 72 60 97 53 49 61 66 92 87 98 94
45 50 53 58 62 76 86 94 90 95 99 99 99 92 73 47 51 67 83 86 93 99 82 100 87 59 63 56 71 99 99 83
50 52 56 58 66 77 89 97 97 98 98 95 97 99 97 79 56 61 66 86 91 100 100 100 70 92 68 84 100 99 98 94
52 53 57 60 70 83 95 100 99 99 99 100 98 98 99 94 70 68 70 84 84 96 99 98 86 77 66 65 50 94 88 81
52 54 60 67 75 87 100 100 99 100 99 100 100 100 99 99 97 78 71 86 88 91 98 100 94 77 61 38 30 88 98 96
55 59 65 73 80 93 100 100 98 100 100 99 100 100 99 99 98 83 85 93 78 82 98 99 100 97 73 60 42 97 92 96
58 62 69 77 86 97 98 100 98 97 100 98 100 100 100 99 92 84 91 95 89 81 99 99 100 100 99 88 92 94 88 92
60 63 70 78 88 97 98 100 97 95 100 100 100 98 100 100 90 87 94 84 94 83 92 98 98 96 91 94 90 98 99 98
60 66 71 79 88 95 100 100 99 91 91 98 99 99 98 100 96 89 95 92 92 93 98 100 98 98 89 64 51 87 98 99
64 68 72 80 89 96 100 100 98 100 96 94 98 98 100 99 88 97 93 88 83 92 92 95 98 99 75 67 68 66 91 99
69 70 75 82 92 99 100 97 98 100 97 93 88 98 100 100 100 99 99 95 96 96 94 98 92 72 62 60 52 75 88 97
77 77 80 87 94 99 100 99 99 99 96 96 87 95 99 100 100 100 100 100 98 99 98 100 99 96 96 74 87 98 100 95
81 84 89 95 99 100 100 100 100 100 99 98 98 98 100 97 93 98 99 100 94 100 100 100 99 100 93 59 65 84 96 98
89 94 98 100 100 100 100 100 100 100 100 98 98 99 100 98 100 100 94 100 100 100 100 100 100 100 85 64 69 99 100 99
100 100 100 100 99 100 100 100 100 99 98 98 100 100 100 99 99 99 93 100 100 100 100 100 100 100 100 99 90 95 99 99
99 100 100 97 98 100 100 100 99 97 97 98 98 98 99 99 100 100 100 99 98 98 100 100 100 100 100 100 100 100 100 99

GFSFLT1_850_rhum_108.txt.gz
RH
36 38 43 48 53 60 63 67 69 67 57 51 42 31 35 70 80 88 85 86 84 79 82 92 71 72 65 87 80 76 83 84
37 45 50 56 60 67 69 67 59 59 62 70 69 66 65 56 62 73 86 83 81 92 87 90 98 100 66 73 72 80 86 91
39 44 50 59 63 68 66 65 54 56 66 66 67 68 63 61 53 68 75 70 80 81 96 84 97 99 93 74 57 72 98 93
39 44 51 57 61 71 77 75 71 71 77 78 83 81 74 67 46 49 67 78 68 79 87 91 92 84 89 95 90 65 77 97
42 47 52 55 63 72 81 82 78 84 83 81 88 98 98 74 77 67 51 77 78 70 65 74 94 82 89 76 95 94 96 94
46 50 54 58 67 78 86 78 74 73 82 87 94 93 97 96 80 61 65 65 80 73 78 75 85 82 80 47 92 99 99 93
48 51 56 64 72 81 84 75 78 88 98 98 98 98 94 95 98 89 59 61 66 77 67 71 86 93 87 81 60 77 96 82
50 55 63 69 76 84 85 83 89 99 95 98 100 100 100 99 97 98 85 59 76 87 76 72 87 88 84 83 79 99 83 65
55 59 67 72 80 88 94 91 97 99 91 97 100 100 100 99 98 99 98 76 83 73 83 78 76 81 98 99 96 95 64 60
55 58 67 74 83 89 98 96 99 98 95 99 100 100 100 100 100 99 98 87 70 91 93 88 83 81 86 100 96 78 64 51
54 59 68 77 85 91 98 100 100 99 95 98 100 100 99 100 100 99 100 87 92 90 81 87 84 84 86 98 88 81 77 81
58 63 70 78 86 94 98 99 96 99 98 96 96 98 98 100 99 99 100 98 94 88 91 93 96 92 95 97 99 100 98 80
63 68 73 81 89 96 99 100 98 100 100 99 96 94 89 100 99 98 100 88 68 91 89 88 98 99 98 98 98 98 83 83
70 74 80 87 94 97 98 100 100 99 100 99 100 98 87 91 99 99 100 96 73 77 85 80 78 73 99 99 95 82 74 62
78 82 87 94 99 99 98 100 100 99 99 99 100 100 99 98 98 93 89 99 98 100 99 98 71 96 97 100 100 75 63 77
83 89 95 99 100 99 99 100 99 100 99 100 100 100 98 98 100 100 99 89 96 100 99 97 97 100 100 100 100 87 74 66
92 98 100 100 100 100 99 100 98 99 98 100 100 98 96 98 100 99 100 100 95 100 97 99 100 99 99 98 93 96 96 75
99 100 100 100 99 99 100 100 97 96 97 100 99 97 94 99 100 99 99 99 100 99 100 100 100 99 100 100 98 99 99 99
100 99 98 100 98 97 98 100 98 96 97 98 97 96 97 97 98 98 99 99 99 100 99 99 100 100 100 100 99 100 100 100

GFSFLT1_850_rhum_111.txt.gz
RH
32 38 43 46 48 51 52 53 58 56 46 31 24 22 32 75 83 87 89 89 85 81 81 84 84 85 91 87 82 83 82 77
43 47 51 49 52 51 53 52 53 53 55 52 44 36 31 29 32 61 80 84 88 76 86 87 81 79 84 94 87 80 87 88
49 51 52 54 56 59 55 56 56 54 51 57 62 60 51 45 33 40 46 63 77 94 87 86 91 86 74 78 91 80 96 85
52 55 57 59 60 63 64 63 56 50 50 51 55 62 65 66 62 52 40 51 72 78 86 89 85 92 88 79 93 95 99 97
53 56 60 62 63 61 65 65 60 63 63 62 73 79 74 70 75 68 63 50 49 62 65 85 82 84 80 76 82 88 67 69
54 57 60 61 55 58 65 62 62 66 71 77 82 83 85 85 87 86 75 68 60 59 66 88 94 80 70 70 74 76 66 69
59 60 60 61 61 57 58 58 59 62 67 76 80 83 84 84 84 90 96 92 71 58 62 77 88 94 80 62 66 77 61 60
64 67 71 67 74 72 66 61 63 65 69 73 80 89 87 92 91 88 94 98 96 77 66 67 73 95 92 90 71 76 80 76
65 70 74 77 80 81 76 71 74 76 78 78 82 86 87 95 99 98 98 99 98 98 83 61 68 74 65 69 78 74 79 80
66 71 75 77 80 82 83 82 78 82 84 85 84 86 86 92 98 99 100 99 98 99 94 67 74 67 41 71 91 74 81 83
69 75 77 80 82 88 87 85 89 94 91 87 88 88 90 90 98 99 100 100 99 100 95 78 79 63 66 84 89 79 86 78
73 78 82 85 87 93 100 92 94 96 96 91 90 92 94 93 95 100 100 99 100 99 99 94 81 74 76 82 78 88 86 91
79 83 87 92 98 99 99 100 99 94 95 93 94 98 100 98 100 98 99 100 100 100 100 82 77 77 76 82 67 85 82 100
85 89 93 95 98 98 99 100 94 94 94 93 95 98 99 100 99 96 100 95 92 100 99 76 71 80 88 94 98 97 97 88
91 95 99 99 99 99 100 97 93 93 92 93 95 98 98 100 99 96 98 100 94 96 100 94 79 92 97 96 98 96 97 98
95 98 99 100 100 100 100 94 91 93 93 94 96 100 100 100 99 98 98 100 99 99 100 100 100 99 94 88 93 99 93 98
100 100 100 100 100 100 93 93 94 94 94 96 96 99 100 98 97 95 96 99 99 100 100 100 100 100 99 86 79 100 98 100
100 100 100 100 99 99 95 94 97 95 96 96 97 99 98 98 95 94 99 98 100 100 100 100 99 99 94 85 99 100 100 100
99 96 96 96 97 96 96 95 96 96 96 97 99 98 96 96 96 95 96 99 100 98 100 100 100 100 100 89 98 100 100 100

GFSFLT1_850_rhum_114.txt.gz
RH
50 52 51 50 46 40 38 36 36 33 27 26 26 30 32 49 68 86 86 87 86 85 93 88 82 82 84 81 89 88 86 82
66 63 60 56 53 48 41 32 24 28 31 30 29 27 29 29 32 43 65 79 87 88 87 89 95 89 85 81 76 86 88 87
63 60 56 51 46 43 36 33 33 34 36 41 43 40 35 37 37 33 32 43 61 74 80 87 88 93 89 85 80 78 74 75
66 62 58 53 44 44 39 39 38 36 36 43 51 53 53 50 50 48 47 46 38 48 62 76 82 94 92 90 82 77 75 76
65 63 62 60 56 48 45 40 36 38 41 45 58 62 58 58 62 60 56 57 56 53 47 57 72 76 86 90 89 74 73 85
74 67 63 63 56 41 47 42 26 34 45 47 54 65 68 65 68 78 76 75 75 70 65 56 55 67 74 94 91 90 80 84
75 74 67 60 52 42 54 48 33 45 52 60 63 70 75 74 73 80 80 82 86 89 82 76 67 60 65 76 96 94 89 78
80 75 71 66 61 51 53 44 47 54 57 62 71 76 79 81 79 81 87 87 89 85 94 95 83 68 58 77 94 90 91 89
83 80 80 76 61 57 64 62 58 59 62 68 76 80 82 82 84 84 85 96 97 90 86 100 99 92 70 69 92 90 90 93
94 88 83 78 70 76 79 69 65 66 71 76 79 82 84 88 88 88 88 86 88 87 84 89 100 99 93 71 83 79 86 79
97 92 85 80 85 79 82 89 88 88 85 84 86 86 87 91 92 92 89 83 85 90 95 99 98 99 97 75 77 68 69 70
94 92 94 94 95 96 93 86 86 84 84 85 87 91 93 94 89 90 89 82 87 89 97 99 99 99 99 82 81 68 67 73
83 83 85 93 100 99 97 88 87 86 84 89 91 92 92 93 90 88 88 91 97 98 98 99 100 100 98 99 73 72 80 77
94 98 96 98 99 98 97 89 88 87 87 89 91 93 94 95 95 94 92 95 99 99 99 99 100 100 84 81 89 82 70 74
99 99 100 100 100 97 92 91 91 91 91 91 92 96 95 96 97 96 98 99 99 100 99 99 100 100 97 84 82 80 83 97
99 100 100 100 100 95 95 94 95 94 92 92 93 94 94 93 95 97 99 99 100 99 99 100 100 100 99 94 93 78 67 77
100 100 100 100 100 99 96 97 97 95 93 93 96 96 94 93 94 97 98 96 97 99 100 100 100 98 100 100 100 94 95 100
99 100 100 99 100 98 96 96 96 93 93 92 96 96 97 97 96 93 96 96 97 97 98 100 100 100 100 98 100 100 99 100
99 99 96 95 96 97 98 98 96 93 91 92 91 93 96 97 97 96 95 96 96 97 97 98 98 99 100 100 100 100 100 98

GFSFLT1_850_rhum_117.txt.gz
RH
51 62 69 71 65 59 52 49 45 41 37 32 28 28 32 37 51 62 69 80 83 86 92 97 90 93 88 93 85 73 52 82
76 75 76 73 68 59 50 45 37 31 27 24 22 21 25 29 30 31 35 45 64 77 82 85 87 78 86 90 91 76 62 98
80 75 69 66 60 55 45 35 31 28 27 25 24 24 25 28 30 33 36 38 37 36 53 73 81 84 90 97 98 97 95 88
81 76 69 64 55 48 45 39 34 30 27 28 32 31 35 36 37 39 43 46 49 47 44 40 46 66 77 84 99 100 99 91
95 85 75 64 66 55 44 35 24 17 16 14 17 17 26 33 35 35 37 46 60 65 63 60 54 46 51 67 81 94 99 99
94 84 76 67 65 70 51 46 31 27 26 23 25 29 37 41 48 49 48 51 65 73 79 76 71 67 64 56 62 78 89 88
100 99 85 74 61 66 56 58 47 44 41 40 41 38 46 53 55 59 61 62 63 74 84 88 91 86 83 76 69 64 83 88
99 99 94 84 72 65 67 64 66 63 54 56 51 55 60 69 69 73 72 71 72 75 84 86 87 99 100 99 89 69 86 99
98 97 96 92 93 86 78 75 71 64 63 69 74 78 79 80 79 81 83 83 79 82 82 89 90 88 96 99 100 97 81 99
100 99 98 99 94 88 80 80 78 68 74 78 81 83 83 84 86 87 86 87 85 77 78 83 96 98 98 98 100 100 96 92
92 95 94 97 93 90 85 85 82 81 80 82 84 87 88 88 88 85 83 84 84 81 78 78 84 94 98 99 100 100 100 95
94 91 95 96 97 97 95 93 90 87 87 88 90 88 88 88 89 90 88 88 90 86 88 92 98 99 98 99 99 99 100 89
96 96 98 99 100 90 89 87 87 91 91 90 86 87 90 89 91 92 92 95 99 100 100 100 93 97 99 99 100 99 100 93
96 97 100 100 99 94 92 92 94 92 90 90 90 91 91 92 94 96 97 97 99 100 100 100 99 91 99 98 100 100 100 99
100 99 100 99 89 90 91 93 93 90 88 91 92 92 93 92 93 95 95 98 100 100 99 100 99 99 100 100 97 100 100 100
100 100 100 100 100 100 98 97 95 92 90 94 96 97 94 95 94 94 93 92 94 97 99 100 99 99 99 98 100 100 100 100
99 99 100 100 100 99 99 98 97 96 96 97 99 98 97 98 98 96 92 89 89 88 89 95 100 100 100 100 100 100 100 100
100 99 100 100 100 99 97 98 98 95 94 86 80 81 84 86 89 90 93 91 90 90 91 92 94 97 99 100 98 100 100 100
100 100 100 99 100 100 99 98 96 95 92 72 58 57 52 56 68 77 85 88 89 91 90 92 94 93 96 98 98 99 99 100

GFSFLT1_850_rhum_123.txt.gz
RH
97 93 91 88 85 81 79 77 78 81 80 79 76 71 68 66 64 62 58 60 64 68 71 73 79 82 89 94 100 100 97 91
89 85 82 78 75 71 66 61 62 59 60 59 57 53 50 47 43 41 38 35 35 36 39 45 54 66 75 79 79 89 98 98
88 77 73 71 68 65 62 60 59 59 59 54 51 51 52 50 50 49 45 46 41 38 37 39 40 40 42 48 66 77 95 98
91 79 74 70 67 64 64 63 59 54 52 53 56 60 58 60 54 48 49 51 53 47 46 44 52 53 50 50 49 56 76 99
89 84 78 76 74 72 67 68 67 66 59 52 43 44 44 65 60 50 51 54 62 56 55 50 54 65 63 62 62 61 60 72
83 80 80 80 80 80 74 72 71 67 68 68 69 54 40 75 80 69 59 62 69 64 63 62 61 77 83 82 82 82 78 71
100 100 98 92 88 86 82 80 74 73 66 70 72 70 63 66 63 66 58 59 69 70 76 70 71 82 91 90 100 99 99 99
100 100 100 100 95 88 88 86 81 69 75 69 70 67 65 69 79 65 68 75 74 74 77 75 75 80 86 90 95 96 97 98
98 98 98 97 99 92 91 88 82 78 77 75 71 86 82 79 73 77 85 92 89 89 84 84 84 84 89 92 91 93 97 99
98 89 88 91 88 89 90 91 89 88 85 84 76 75 81 80 77 87 95 100 97 99 100 97 99 99 99 99 99 96 92 99
98 92 88 88 91 89 90 92 91 92 98 97 98 93 91 89 90 94 100 100 100 99 99 99 99 99 99 99 98 99 99 98
89 94 90 91 88 89 90 93 94 97 93 92 92 93 85 90 92 95 100 100 100 99 99 98 100 99 99 100 100 98 99 100
83 88 96 99 94 95 97 96 97 99 100 97 99 95 93 91 90 92 90 92 97 99 100 100 99 99 99 99 98 100 99 98
88 98 100 100 100 100 99 98 100 100 99 99 97 98 94 91 91 94 95 94 97 100 99 98 99 99 100 100 100 100 100 100
95 100 100 100 100 100 97 98 98 98 97 95 91 88 90 90 92 91 91 94 97 100 99 98 99 99 100 100 100 100 100 100
99 100 100 100 100 100 98 98 96 94 93 77 64 68 72 69 67 64 67 74 81 88 95 95 97 99 100 100 100 100 97 94
100 100 100 100 100 100 95 96 98 93 89 84 74 60 36 33 32 30 29 29 30 33 40 60 80 89 95 94 91 91 94 94
100 99 99 100 100 96 92 93 91 72 41 31 31 30 28 27 27 26 25 23 22 21 22 23 26 41 65 78 84 88 85 86
99 99 100 96 96 90 90 91 73 52 40 35 30 27 27 27 26 21 18 16 16 18 18 21 22 22 19 31 45 61 72 82

GFSFLT1_850_rhum_129.txt.gz
RH
69 72 76 74 79 82 70 67 65 62 69 72 84 90 89 88 90 93 92 92 92 91 93 94 89 92 94 94 97 99 95 98
67 73 76 76 80 79 74 58 56 54 55 59 81 71 72 73 75 75 69 64 65 59 60 60 53 49 59 76 95 95 93 96
66 70 73 77 81 82 81 82 66 57 64 65 62 75 86 69 67 78 68 59 48 46 47 48 45 46 46 47 52 56 69 87
65 71 79 83 88 91 88 90 90 82 65 82 82 80 76 80 82 61 53 69 48 40 43 48 49 49 50 54 60 66 60 56
68 78 86 90 93 97 98 98 97 96 82 92 86 91 88 92 88 91 91 61 64 50 46 45 52 56 54 48 64 73 84 78
78 89 92 90 92 93 97 97 97 99 84 78 79 88 92 92 97 99 98 97 66 53 53 52 50 64 63 59 68 84 93 97
86 91 91 91 94 96 94 92 91 100 98 96 85 86 82 80 76 71 93 99 98 75 62 58 54 60 68 78 78 89 94 99
84 83 84 88 86 91 91 92 92 100 98 98 97 93 99 97 88 85 79 95 96 98 84 76 67 68 91 88 89 89 99 100
87 85 83 81 80 95 98 93 95 100 98 94 94 91 93 99 92 89 89 94 97 97 96 92 82 93 96 100 96 100 99 98
92 89 84 82 85 97 96 98 100 97 97 97 96 100 98 100 100 98 100 94 99 98 98 99 90 95 99 98 99 99 99 99
85 76 77 82 95 98 90 94 96 98 96 93 96 96 97 98 100 100 100 94 98 100 95 95 99 98 97 99 99 99 100 99
83 76 73 81 90 98 99 95 98 99 97 93 94 94 98 94 95 94 99 100 98 98 97 96 99 98 100 99 100 100 99 99
71 66 69 78 88 97 100 100 100 99 98 95 97 98 98 98 96 91 92 92 92 93 99 100 100 100 100 99 100 100 100 99
68 66 69 76 90 97 100 100 100 100 100 100 100 98 96 95 96 96 99 100 98 100 100 100 100 100 100 100 100 100 100 99
65 64 71 80 91 96 99 100 100 99 99 99 97 90 83 71 82 89 94 94 97 97 99 99 98 84 81 99 100 100 99 98
66 66 73 86 92 94 99 99 100 98 100 100 89 85 78 82 86 94 94 97 98 98 98 97 92 48 55 66 100 100 96 90
68 69 78 84 90 92 99 92 88 89 87 86 85 77 64 53 64 81 93 98 97 100 100 98 58 34 20 26 79 76 61 56
68 74 85 87 93 97 98 92 82 82 81 85 59 34 23 21 34 55 69 76 92 87 93 99 36 9 8 11 40 66 68 49
89 96 94 100 100 100 95 88 86 83 76 44 36 34 33 59 34 26 51 70 69 66 51 57 46 7 6 8 64 55 39 33

GFSFLT1_850_rhum_132.txt.gz
RH
64 68 74 74 78 76 73 64 59 57 58 68 84 80 79 85 86 83 81 83 88 91 95 96 96 91 82 81 82 80 80 79
61 68 73 75 82 80 82 78 68 62 67 64 59 70 86 70 73 70 67 63 58 55 54 53 57 60 55 47 43 39 39 51
61 67 76 82 87 88 87 86 81 65 63 80 86 78 83 79 82 70 64 59 52 44 41 43 44 44 45 46 44 38 36 49
59 69 82 85 90 92 89 86 83 71 65 67 64 77 78 85 88 88 90 71 62 46 47 42 44 48 43 42 44 44 40 37
63 73 82 83 89 93 94 93 93 87 79 72 73 83 83 84 91 85 99 98 89 66 56 54 51 51 49 49 51 53 64 60
70 80 81 84 90 93 93 86 91 97 93 76 73 76 78 81 76 73 72 84 87 79 77 70 63 59 61 57 55 57 65 84
77 82 81 83 87 89 85 86 90 90 99 99 78 73 79 92 77 81 75 79 75 78 77 82 79 76 73 72 66 70 74 95
74 75 74 80 82 72 81 86 90 84 87 89 84 87 92 98 88 87 92 86 94 95 88 90 88 89 84 85 84 86 91 97
74 75 74 74 79 61 66 89 94 79 88 95 89 92 99 100 100 99 100 100 100 100 100 99 99 98 98 96 99 100 100 99
83 82 79 74 82 62 58 76 89 85 88 95 98 100 97 99 100 99 100 100 100 100 100 100 100 100 99 100 100 100 99 96
83 77 75 77 82 68 63 70 82 89 88 94 96 97 100 97 97 100 100 100 100 98 98 100 100 100 96 98 100 99 98 99
79 73 74 81 86 82 68 86 87 89 90 94 99 100 100 99 96 96 95 96 96 98 100 98 96 97 98 98 99 100 100 100
73 71 68 78 85 92 82 93 95 99 95 100 100 100 100 100 94 94 94 95 92 95 98 94 82 88 96 100 100 100 100 100
69 63 66 74 85 93 95 97 100 98 98 98 96 92 82 85 91 94 87 83 89 98 90 90 63 66 96 100 100 100 100 100
67 62 65 74 86 93 98 100 98 97 98 98 98 91 86 87 90 87 81 83 71 89 86 67 44 44 77 100 100 100 96 91
64 61 67 79 85 91 94 99 97 97 100 98 90 87 84 78 82 86 83 60 65 79 82 39 25 17 33 86 100 86 64 34
63 61 70 81 86 90 94 90 90 88 88 92 89 69 62 48 68 76 67 54 35 44 81 38 12 14 38 82 97 95 58 23
63 64 72 79 85 90 93 88 83 82 85 82 54 40 29 25 31 39 38 33 26 24 38 41 14 10 34 73 100 63 52 41
66 68 78 91 96 96 91 83 82 84 74 63 51 39 46 36 24 39 53 38 30 25 23 23 14 11 7 27 72 73 84 46

GFSFLT1_850_rhum_135.txt.gz
RH
54 53 63 72 76 76 72 64 59 58 58 65 69 67 65 69 67 67 67 66 67 69 82 92 93 89 95 95 90 86 83 75
60 65 71 73 71 74 70 64 59 58 53 54 60 81 81 76 70 62 58 53 51 49 47 46 45 48 47 45 44 40 38 37
63 68 75 75 71 78 75 72 62 63 58 58 66 78 83 85 79 74 66 56 46 42 39 38 37 38 36 34 36 34 34 40
64 70 75 71 76 76 76 71 61 58 60 62 64 68 80 76 70 80 78 71 60 60 61 56 48 51 42 46 44 42 45 59
66 72 72 82 84 82 86 72 50 45 48 50 53 59 66 71 72 75 76 82 75 68 68 70 72 69 64 62 60 58 56 66
66 68 74 82 85 84 88 78 54 38 33 38 48 50 53 51 52 53 60 71 76 74 73 74 75 76 77 76 75 75 80 87
66 70 82 81 78 73 81 75 56 44 41 40 42 46 53 54 60 62 65 72 74 75 76 80 88 90 89 86 88 94 94 99
67 74 81 81 76 64 79 66 53 50 48 48 53 57 61 65 69 77 84 91 94 94 95 98 98 99 94 98 100 100 100 100
73 77 76 75 72 55 61 52 50 53 57 69 73 72 75 80 83 91 96 100 100 100 100 100 100 100 100 100 100 100 100 99
74 75 74 74 69 49 49 50 52 54 68 76 76 80 79 88 94 98 100 100 100 100 100 100 100 100 100 98 100 100 100 99
77 78 78 75 68 52 49 51 54 63 75 80 83 95 92 90 93 99 100 96 92 93 91 91 100 100 99 100 98 100 100 99
81 82 78 75 71 63 56 58 68 77 85 92 95 99 97 79 77 88 93 95 97 92 82 75 90 99 99 99 98 99 100 100
80 75 74 77 77 73 68 71 83 90 96 100 99 93 87 82 83 80 87 89 94 86 67 60 60 100 99 100 99 100 100 100
79 74 74 76 78 73 73 87 97 96 98 96 90 81 75 75 80 78 70 73 83 70 54 29 31 80 93 93 88 82 69 91
75 73 70 77 75 76 78 91 97 96 97 97 92 85 76 70 68 60 56 58 61 48 41 17 15 43 63 71 72 47 24 48
71 66 67 74 73 77 85 90 99 96 100 98 87 77 64 58 53 41 40 41 53 41 28 9 10 29 69 79 74 38 16 17
70 64 66 72 72 81 90 92 96 96 94 90 84 63 48 38 31 30 29 28 25 33 15 8 8 32 68 64 50 28 21 11
70 64 66 72 75 74 89 91 90 88 85 76 58 42 28 24 23 28 29 24 20 16 13 10 8 23 76 52 46 37 27 24
66 65 69 74 79 82 90 90 82 82 80 64 49 28 28 24 27 37 39 34 24 14 12 10 10 11 32 67 52 40 34 24